�N����,����,�~����,�C��,���x,�C��,����,���ϕ���,�ő�u�ԕ���,�ő厞����,���˗�,�I�_���x,�n�����x,�ő啗���N��,DTYPE
"17/05/05","00:10",0.0,17.8,74.2,1014.2,75.9,0.8,2.8,112.9,0.00,13.2,16.3,"00:01:12",1
"17/05/05","00:20",0.0,17.5,74.8,1014.0,2.4,0.7,2.1,335.8,0.00,13.0,16.2,"00:10:48",1
"17/05/05","00:30",0.0,17.3,75.6,1013.8,331.0,0.7,2.5,319.1,0.00,13.0,16.2,"00:28:08",1
"17/05/05","00:40",0.0,17.1,76.1,1013.3,25.8,0.5,1.6,41.4,0.00,12.9,16.1,"00:35:20",1
"17/05/05","00:50",0.0,17.0,76.3,1013.5,325.2,0.8,1.7,339.6,0.00,12.8,16.1,"00:43:44",1
"17/05/05","01:00",0.0,16.9,77.0,1013.8,342.0,0.8,1.8,314.1,0.00,12.9,16.0,"00:53:04",1
"17/05/05","01:10",0.0,17.0,77.2,1013.5,329.1,0.7,1.9,316.9,0.00,13.0,15.9,"01:00:02",1
"17/05/05","01:20",0.0,16.9,77.3,1013.8,288.8,1.1,1.7,321.0,0.00,12.9,15.9,"01:10:48",1
"17/05/05","01:30",0.0,16.7,78.5,1013.5,324.4,1.0,2.0,337.3,0.00,13.0,16.0,"01:28:24",1
"17/05/05","01:40",0.0,16.4,79.7,1013.3,285.9,0.7,1.3,305.1,0.00,12.9,16.1,"01:30:40",1
"17/05/05","01:50",0.0,16.3,80.9,1013.3,103.0,0.3,1.1,344.3,0.00,13.1,16.1,"01:40:02",1
"17/05/05","02:00",0.0,16.7,80.5,1013.0,29.5,0.7,1.6,112.7,0.00,13.4,16.1,"01:53:36",1
"17/05/05","02:10",0.0,16.7,80.2,1013.0,308.4,1.3,2.0,317.6,0.00,13.3,15.8,"02:01:44",1
"17/05/05","02:20",0.0,16.5,80.9,1013.0,293.5,0.8,1.9,318.1,0.00,13.3,16.0,"02:16:56",1
"17/05/05","02:30",0.0,16.5,81.4,1013.0,316.1,0.7,1.1,333.4,0.00,13.3,16.0,"02:26:08",1
"17/05/05","02:40",0.0,16.5,81.4,1012.8,328.8,1.2,1.8,334.7,0.00,13.3,15.7,"02:30:56",1
"17/05/05","02:50",0.0,16.4,81.8,1012.8,304.3,1.2,1.6,319.5,0.00,13.3,16.0,"02:41:36",1
"17/05/05","03:00",0.0,16.4,82.3,1012.8,304.8,1.0,1.8,311.7,0.00,13.4,15.8,"02:50:48",1
"17/05/05","03:10",0.0,16.4,82.6,1012.8,345.8,0.8,1.8,322.7,0.00,13.5,15.7,"03:02:24",1
"17/05/05","03:20",0.0,16.2,83.3,1012.8,312.9,1.1,1.3,319.5,0.00,13.4,15.9,"03:13:12",1
"17/05/05","03:30",0.0,16.0,84.0,1012.6,316.9,1.0,1.4,330.1,0.00,13.3,15.6,"03:23:20",1
"17/05/05","03:40",0.0,15.8,84.5,1012.8,296.9,0.8,1.1,322.7,0.00,13.2,15.6,"03:39:52",1
"17/05/05","03:50",0.0,15.5,84.9,1012.6,311.1,1.1,1.6,326.9,0.00,13.0,15.8,"03:47:28",1
"17/05/05","04:00",0.0,15.4,85.8,1012.6,295.7,1.3,1.9,314.4,0.00,13.1,15.8,"03:53:12",1
"17/05/05","04:10",0.0,15.2,85.9,1012.3,322.7,1.1,2.2,321.8,0.00,12.9,15.6,"04:05:12",1
"17/05/05","04:20",0.0,14.9,86.4,1012.6,293.0,0.6,1.1,344.6,0.00,12.7,15.7,"04:10:02",1
"17/05/05","04:30",0.0,14.6,87.3,1012.1,315.1,1.2,1.8,335.9,0.00,12.6,15.5,"04:27:36",1
"17/05/05","04:40",0.0,14.3,88.1,1012.3,297.4,0.8,1.2,333.9,0.00,12.4,15.5,"04:31:04",1
"17/05/05","04:50",0.0,14.2,88.8,1012.3,320.1,1.2,1.8,328.6,0.00,12.4,15.4,"04:43:52",1
"17/05/05","05:00",0.0,14.1,89.4,1012.1,321.4,1.2,1.7,329.9,0.00,12.4,15.5,"04:57:28",1
"17/05/05","05:10",0.0,14.0,89.5,1012.1,313.9,1.1,1.9,333.8,0.00,12.3,15.1,"05:00:24",1
"17/05/05","05:20",0.0,14.1,90.3,1012.1,308.0,0.8,1.7,326.7,0.00,12.6,15.4,"05:18:56",1
"17/05/05","05:30",0.0,14.1,89.9,1012.1,317.0,1.2,1.8,335.1,0.00,12.5,15.4,"05:27:28",1
"17/05/05","05:40",0.0,14.1,90.6,1012.3,315.7,1.3,2.0,340.1,0.00,12.6,15.0,"05:39:52",1
"17/05/05","05:50",0.0,14.3,90.7,1012.3,313.7,1.0,1.9,339.6,0.00,12.8,15.3,"05:40:08",1
"17/05/05","06:00",0.0,14.7,90.8,1012.6,288.1,1.0,1.4,298.5,0.01,13.3,15.2,"05:55:20",1
"17/05/05","06:10",0.0,15.2,90.7,1012.8,308.6,0.8,1.9,316.2,0.02,13.7,15.3,"06:00:32",1
"17/05/05","06:20",0.0,15.8,89.5,1013.0,334.8,1.1,1.9,325.7,0.04,14.1,15.2,"06:11:20",1
"17/05/05","06:30",0.0,16.5,88.0,1013.0,340.4,1.1,2.0,343.8,0.06,14.5,15.3,"06:29:36",1
"17/05/05","06:40",0.0,17.7,84.4,1012.8,324.3,0.7,1.7,326.2,0.06,15.1,15.4,"06:32:00",1
"17/05/05","06:50",0.0,17.9,82.2,1013.0,277.5,0.3,0.8,308.5,0.05,14.9,15.4,"06:40:08",1
"17/05/05","07:00",0.0,18.2,80.9,1013.3,285.2,0.6,1.2,303.8,0.08,14.9,15.5,"06:57:36",1
"17/05/05","07:10",0.0,18.7,77.2,1013.3,296.7,0.8,1.6,329.0,0.09,14.7,15.4,"07:07:52",1
"17/05/05","07:20",0.0,18.9,75.9,1013.3,279.4,0.7,1.4,297.5,0.12,14.6,15.6,"07:13:20",1
"17/05/05","07:30",0.0,19.6,74.1,1013.0,277.2,0.5,1.2,248.2,0.14,14.9,15.6,"07:21:36",1
"17/05/05","07:40",0.0,19.4,72.1,1012.8,41.1,0.8,2.1,327.2,0.12,14.3,15.8,"07:36:32",1
"17/05/05","07:50",0.0,19.3,72.8,1012.6,113.7,1.1,3.1,125.4,0.14,14.3,15.9,"07:47:52",1
"17/05/05","08:00",0.0,19.1,72.5,1012.6,153.4,1.2,2.7,130.1,0.07,14.1,15.8,"07:52:40",1
"17/05/05","08:10",0.0,19.1,73.4,1012.6,130.2,1.0,2.5,127.9,0.11,14.3,16.1,"08:01:28",1
"17/05/05","08:20",0.0,21.1,67.5,1012.6,85.6,0.8,2.7,107.1,0.29,14.9,15.9,"08:13:28",1
"17/05/05","08:30",0.0,20.5,67.8,1012.6,135.5,1.0,2.5,136.4,0.25,14.4,16.2,"08:22:24",1
"17/05/05","08:40",0.0,20.2,67.9,1012.3,124.5,1.2,3.7,110.9,0.22,14.1,16.2,"08:36:32",1
"17/05/05","08:50",0.0,20.7,70.3,1012.3,141.4,0.6,2.0,115.2,0.21,15.1,16.4,"08:47:36",1
"17/05/05","09:00",0.0,20.9,66.7,1011.9,82.5,1.1,2.8,113.9,0.30,14.5,16.4,"08:54:56",1
"17/05/05","09:10",0.0,21.5,67.4,1011.6,107.7,1.0,3.3,128.5,0.32,15.3,16.7,"09:08:56",1
"17/05/05","09:20",0.0,21.0,66.7,1011.6,109.2,1.5,3.2,115.9,0.28,14.6,16.6,"09:18:24",1
"17/05/05","09:30",0.0,21.1,64.4,1011.4,133.5,1.3,3.3,124.0,0.29,14.2,16.8,"09:22:32",1
"17/05/05","09:40",0.0,21.5,65.1,1011.4,157.6,1.6,3.4,187.2,0.36,14.7,16.9,"09:36:40",1
"17/05/05","09:50",0.0,21.4,64.1,1011.2,196.7,0.8,2.2,169.2,0.30,14.4,17.1,"09:40:56",1
"17/05/05","10:00",0.0,21.3,64.1,1011.2,174.7,1.5,2.9,184.0,0.26,14.3,16.9,"09:55:36",1
"17/05/05","10:10",0.0,22.1,61.6,1011.2,201.1,1.5,3.7,213.7,0.50,14.4,17.3,"10:04:08",1
"17/05/05","10:20",0.0,22.9,60.3,1010.9,181.5,1.3,2.9,226.1,0.59,14.8,17.5,"10:10:02",1
"17/05/05","10:30",0.0,22.4,63.7,1010.4,208.4,1.3,3.3,223.7,0.43,15.2,17.5,"10:28:16",1
"17/05/05","10:40",0.0,22.3,62.2,1010.4,204.7,1.2,3.7,223.4,0.27,14.8,17.7,"10:31:44",1
"17/05/05","10:50",0.0,22.4,60.5,1010.2,204.1,1.3,3.1,178.0,0.32,14.4,18.1,"10:43:52",1
"17/05/05","11:00",0.0,23.6,57.4,1010.2,183.6,1.3,2.5,118.4,0.47,14.7,18.1,"10:50:24",1
"17/05/05","11:10",0.0,23.8,60.3,1009.7,123.2,1.2,2.8,127.5,0.48,15.7,18.1,"11:09:20",1
"17/05/05","11:20",0.0,23.9,53.6,1009.0,69.9,1.3,2.5,353.4,0.41,14.0,18.4,"11:16:08",1
"17/05/05","11:30",0.0,24.4,55.1,1009.5,150.6,1.1,3.2,190.6,0.59,14.8,18.4,"11:26:56",1
"17/05/05","11:40",0.0,25.2,56.4,1009.3,170.0,1.5,3.4,130.9,0.63,16.0,19.0,"11:37:04",1
"17/05/05","11:50",0.0,24.9,55.0,1009.3,152.3,2.1,4.3,140.7,0.59,15.3,19.0,"11:44:00",1
"17/05/05","12:00",0.0,25.3,53.7,1008.8,150.5,1.6,3.1,146.1,0.63,15.3,19.2,"11:54:08",1
"17/05/05","12:10",0.0,25.4,53.0,1009.0,199.8,1.7,4.2,161.7,0.60,15.2,19.6,"12:00:02",1
"17/05/05","12:20",0.0,25.9,55.9,1008.8,148.0,2.3,4.1,146.6,0.57,16.5,19.8,"12:10:08",1
"17/05/05","12:30",0.0,25.4,53.2,1008.3,167.1,2.0,3.6,167.4,0.51,15.2,19.7,"12:25:20",1
"17/05/05","12:40",0.0,25.3,53.8,1008.1,166.0,2.2,4.2,191.0,0.45,15.3,20.0,"12:33:04",1
"17/05/05","12:50",0.0,26.2,51.3,1008.3,160.1,1.7,3.5,189.5,0.59,15.4,20.4,"12:41:04",1
"17/05/05","13:00",0.0,26.8,49.7,1008.3,193.6,1.8,4.0,177.1,0.66,15.5,20.5,"12:58:24",1
"17/05/05","13:10",0.0,26.8,49.9,1008.3,196.1,2.7,4.5,161.6,0.58,15.5,20.6,"13:00:48",1
"17/05/05","13:20",0.0,26.0,51.2,1007.8,209.1,2.1,5.0,230.6,0.25,15.2,20.5,"13:11:44",1
"17/05/05","13:30",0.0,26.3,49.0,1007.6,303.2,1.6,3.9,331.3,0.41,14.8,20.6,"13:22:40",1
"17/05/05","13:40",0.0,25.8,50.5,1007.1,300.1,2.2,6.0,355.7,0.19,14.8,20.5,"13:31:20",1
"17/05/05","13:50",0.0,25.7,52.8,1006.9,304.7,2.0,4.3,344.6,0.18,15.4,20.3,"13:40:48",1
"17/05/05","14:00",0.0,25.6,52.2,1007.6,269.4,1.6,4.0,230.9,0.16,15.1,20.2,"13:56:40",1
"17/05/05","14:10",0.0,25.6,52.0,1007.6,247.9,1.5,2.6,234.0,0.17,15.1,20.4,"14:05:04",1
"17/05/05","14:20",0.0,25.6,50.9,1007.1,250.4,1.7,3.6,228.5,0.17,14.7,20.2,"14:19:04",1
"17/05/05","14:30",0.0,26.0,52.5,1007.1,255.9,1.6,4.4,306.8,0.20,15.6,20.1,"14:29:04",1
"17/05/05","14:40",0.0,26.9,49.8,1007.1,273.5,1.3,2.5,346.1,0.38,15.6,20.4,"14:32:56",1
"17/05/05","14:50",0.0,27.2,47.5,1006.7,238.2,1.3,3.6,227.1,0.44,15.1,20.3,"14:42:40",1
"17/05/05","15:00",0.0,27.2,50.6,1006.7,216.0,1.6,3.5,232.4,0.35,16.1,20.4,"14:59:04",1
"17/05/05","15:10",0.0,27.5,47.0,1006.7,214.8,1.2,2.7,186.9,0.47,15.2,20.3,"15:05:28",1
"17/05/05","15:20",0.0,27.6,47.6,1006.7,218.6,1.1,3.7,202.8,0.44,15.5,20.6,"15:19:52",1
"17/05/05","15:30",0.0,27.3,48.3,1006.7,232.6,1.7,3.4,237.5,0.37,15.5,20.4,"15:21:12",1
"17/05/05","15:40",0.0,26.3,50.3,1006.4,265.3,0.8,1.9,341.6,0.14,15.2,20.4,"15:38:16",1
"17/05/05","15:50",0.0,26.3,49.9,1006.2,198.2,1.0,3.2,206.3,0.16,15.1,20.4,"15:44:16",1
"17/05/05","16:00",0.0,26.9,49.5,1006.2,233.5,1.1,2.6,191.9,0.19,15.5,20.5,"15:57:04",1
"17/05/05","16:10",0.0,27.4,48.4,1005.7,207.5,1.7,4.3,203.0,0.27,15.6,20.4,"16:05:44",1
"17/05/05","16:20",0.0,26.8,49.6,1005.5,231.6,1.7,3.2,203.5,0.13,15.4,20.2,"16:14:32",1
"17/05/05","16:30",0.0,26.9,50.1,1006.0,245.9,1.2,3.5,235.3,0.15,15.7,20.2,"16:26:16",1
"17/05/05","16:40",0.0,27.4,49.6,1006.0,249.9,1.0,2.0,252.6,0.18,16.0,20.3,"16:31:36",1
"17/05/05","16:50",0.0,27.7,47.5,1005.5,252.3,1.3,3.4,220.4,0.19,15.6,20.3,"16:44:48",1
"17/05/05","17:00",0.0,27.4,47.5,1005.5,237.6,1.7,4.9,233.7,0.17,15.3,20.4,"16:51:12",1
"17/05/05","17:10",0.0,27.3,47.5,1005.7,263.3,1.2,2.6,260.1,0.12,15.2,20.1,"17:06:24",1
"17/05/05","17:20",0.0,27.0,47.0,1006.0,259.0,1.5,3.5,223.3,0.10,14.8,20.2,"17:18:00",1
"17/05/05","17:30",0.0,26.9,48.3,1006.2,257.2,1.6,3.3,257.5,0.10,15.1,20.0,"17:29:04",1
"17/05/05","17:40",0.0,26.5,47.4,1006.2,247.2,2.0,4.2,236.0,0.08,14.5,20.2,"17:36:16",1
"17/05/05","17:50",0.0,26.1,48.7,1006.4,244.4,2.1,3.9,226.3,0.02,14.5,19.9,"17:48:56",1
"17/05/05","18:00",0.0,25.8,50.2,1006.7,249.4,1.6,3.1,232.5,0.01,14.7,19.7,"17:55:20",1
"17/05/05","18:10",0.0,25.5,51.1,1006.9,256.3,1.7,3.7,328.9,0.01,14.7,19.5,"18:08:16",1
"17/05/05","18:20",0.0,25.1,52.4,1007.1,240.5,1.6,3.3,227.3,0.00,14.7,19.6,"18:17:44",1
"17/05/05","18:30",0.0,24.5,54.0,1006.9,228.8,2.0,3.6,234.1,0.00,14.6,19.6,"18:24:00",1
"17/05/05","18:40",0.0,24.1,55.6,1007.1,216.1,1.1,2.7,227.2,0.00,14.7,19.5,"18:30:16",1
"17/05/05","18:50",0.0,23.6,56.8,1007.1,183.9,1.3,2.9,153.0,0.00,14.6,19.6,"18:43:44",1
"17/05/05","19:00",0.0,23.4,57.3,1007.4,225.2,1.2,2.7,229.9,0.00,14.5,19.3,"18:55:04",1
"17/05/05","19:10",0.0,23.0,58.5,1007.4,267.2,0.6,1.9,238.7,0.00,14.5,19.1,"19:00:56",1
"17/05/05","19:20",0.0,22.4,61.8,1007.6,311.1,1.1,2.5,335.0,0.00,14.8,18.9,"19:16:08",1
"17/05/05","19:30",0.0,21.7,64.5,1007.8,325.2,1.6,3.2,340.4,0.00,14.8,19.2,"19:23:44",1
"17/05/05","19:40",0.0,21.2,66.5,1007.6,338.1,1.1,1.9,342.0,0.00,14.8,18.9,"19:36:48",1
"17/05/05","19:50",0.0,20.7,68.3,1008.3,28.4,0.5,1.0,2.1,0.00,14.7,18.7,"19:40:40",1
"17/05/05","20:00",0.0,20.1,70.2,1008.1,319.9,1.6,2.1,314.9,0.00,14.5,18.6,"19:52:32",1
"17/05/05","20:10",0.0,20.1,70.5,1008.6,304.3,1.5,2.4,335.5,0.00,14.6,18.5,"20:02:48",1
"17/05/05","20:20",0.0,20.3,70.1,1008.8,284.4,1.0,2.1,326.4,0.00,14.7,18.5,"20:17:12",1
"17/05/05","20:30",0.0,19.9,71.2,1009.0,343.5,1.0,1.8,333.6,0.00,14.6,18.3,"20:21:44",1
"17/05/05","20:40",0.0,19.5,72.8,1009.0,10.4,0.8,2.1,356.5,0.00,14.5,18.1,"20:36:16",1
"17/05/05","20:50",0.0,19.3,73.3,1009.5,346.4,0.5,1.0,331.6,0.00,14.4,18.0,"20:45:44",1
"17/05/05","21:00",0.0,18.9,74.2,1009.7,297.2,0.6,1.2,288.1,0.00,14.2,18.1,"20:52:56",1
"17/05/05","21:10",0.0,18.7,76.2,1009.5,330.6,1.3,2.5,328.1,0.00,14.5,18.0,"21:09:28",1
"17/05/05","21:20",0.0,18.6,77.6,1009.7,332.9,1.6,2.2,335.6,0.00,14.7,17.9,"21:10:24",1
"17/05/05","21:30",0.0,18.6,78.0,1010.0,286.6,1.2,1.7,276.7,0.00,14.7,17.9,"21:24:08",1
"17/05/05","21:40",0.0,18.7,77.8,1010.0,320.2,2.0,2.9,319.5,0.00,14.8,17.7,"21:36:08",1
"17/05/05","21:50",0.0,18.5,78.1,1009.7,326.5,1.8,2.8,326.9,0.00,14.7,17.7,"21:40:08",1
"17/05/05","22:00",0.0,18.1,78.9,1009.7,302.9,1.0,2.5,321.6,0.00,14.4,17.7,"21:50:48",1
"17/05/05","22:10",0.0,17.7,80.1,1009.5,319.5,0.2,0.9,334.0,0.00,14.3,17.6,"22:05:48",1
"17/05/05","22:20",0.0,17.5,82.0,1009.5,273.5,1.0,1.9,318.0,0.00,14.4,17.6,"22:18:32",1
"17/05/05","22:30",0.0,17.5,82.7,1009.7,322.2,1.7,3.4,327.1,0.00,14.6,17.4,"22:26:00",1
"17/05/05","22:40",0.0,17.8,82.1,1009.7,326.4,2.5,3.6,318.4,0.00,14.7,17.4,"22:35:20",1
"17/05/05","22:50",0.0,17.9,81.6,1009.7,325.1,2.1,3.3,338.9,0.00,14.8,17.3,"22:44:56",1
"17/05/05","23:00",0.0,17.7,81.8,1009.7,320.0,2.2,3.4,328.3,0.00,14.6,17.3,"22:58:40",1
"17/05/05","23:10",0.0,17.5,82.7,1009.5,311.8,2.2,4.3,336.3,0.00,14.6,17.3,"23:06:40",1
"17/05/05","23:20",0.0,17.6,83.0,1009.3,332.1,2.5,3.5,337.1,0.00,14.7,17.3,"23:17:20",1
"17/05/05","23:30",0.0,17.6,83.6,1009.0,328.4,2.7,5.0,339.8,0.00,14.8,17.2,"23:28:24",1
"17/05/05","23:40",0.0,17.7,83.7,1009.3,328.9,3.0,4.5,321.7,0.00,14.9,17.1,"23:30:08",1
"17/05/05","23:50",0.0,17.6,84.1,1009.0,318.8,2.2,3.3,324.9,0.00,14.9,17.2,"23:40:02",1
"17/05/05","24:00",0.0,17.6,84.9,1009.3,320.1,2.6,3.6,325.9,0.00,15.1,17.1,"23:50:08",1
